Satellite-Ground Cal/Val Region Overpasses Predictions

Prediction of Satellite NPP Overpassing Cal/Val Region: PacNW

Region Location: (Latitude: 10.00, Longitude: 139.50) to (Latitude: 22.70, Longitude: 165.60).

Table of predicted overpasses for the next 14.0 days since TLE Epoch: 2/19/2022
Interval Starting Time Starting Location Ending Time Ending Location
1 02/19/2022 15:36:46 ( 22.65, 150.79) 02/19/2022 15:40:21 ( 10.03, 147.79)
2 02/20/2022 02:45:50 ( 10.03, 158.32) 02/20/2022 02:49:25 ( 22.65, 155.32)
3 02/20/2022 15:17:43 ( 22.70, 155.56) 02/20/2022 15:21:19 ( 10.02, 152.55)
4 02/21/2022 02:26:49 ( 10.04, 163.08) 02/21/2022 02:30:24 ( 22.66, 160.08)
5 02/21/2022 14:58:42 ( 22.69, 160.31) 02/21/2022 15:02:18 ( 10.01, 157.30)
6 02/22/2022 02:10:29 ( 19.56, 165.60) 02/22/2022 02:11:22 ( 22.67, 164.83)
7 02/22/2022 03:49:17 ( 10.05, 142.46) 02/22/2022 03:52:48 ( 22.44, 139.51)
8 02/22/2022 14:39:40 ( 22.68, 165.07) 02/22/2022 14:43:16 ( 10.00, 162.05)
9 02/22/2022 16:21:10 ( 22.68, 139.69) 02/22/2022 16:21:23 ( 21.91, 139.50)
10 02/23/2022 03:30:15 ( 10.01, 147.22) 02/23/2022 03:33:51 ( 22.69, 144.21)
11 02/23/2022 16:02:09 ( 22.67, 144.45) 02/23/2022 16:05:44 ( 10.05, 141.45)
12 02/24/2022 03:11:14 ( 10.02, 151.98) 02/24/2022 03:14:50 ( 22.70, 148.96)
13 02/24/2022 15:43:07 ( 22.66, 149.20) 02/24/2022 15:46:42 ( 10.04, 146.20)
14 02/25/2022 02:52:12 ( 10.03, 156.73) 02/25/2022 02:55:47 ( 22.65, 153.73)
15 02/25/2022 15:24:06 ( 22.64, 153.95) 02/25/2022 15:27:41 ( 10.02, 150.95)
16 02/26/2022 02:33:11 ( 10.04, 161.48) 02/26/2022 02:36:46 ( 22.66, 158.48)
17 02/26/2022 15:05:03 ( 22.69, 158.72) 02/26/2022 15:08:39 ( 10.01, 155.71)
18 02/27/2022 02:14:57 ( 12.87, 165.59) 02/27/2022 02:17:44 ( 22.67, 163.24)
19 02/27/2022 03:55:39 ( 10.06, 140.86) 02/27/2022 03:57:18 ( 15.87, 139.51)
20 02/27/2022 14:46:02 ( 22.68, 163.47) 02/27/2022 14:49:38 ( 10.00, 160.46)
21 02/28/2022 03:36:37 ( 10.01, 145.63) 02/28/2022 03:40:13 ( 22.69, 142.61)
22 02/28/2022 14:30:08 ( 11.63, 165.59) 02/28/2022 14:30:35 ( 10.05, 165.23)
23 02/28/2022 16:08:30 ( 22.66, 142.85) 02/28/2022 16:12:05 ( 10.04, 139.85)
24 03/01/2022 03:17:35 ( 10.02, 150.38) 03/01/2022 03:21:10 ( 22.65, 147.38)
25 03/01/2022 15:49:29 ( 22.65, 147.60) 03/01/2022 15:53:04 ( 10.03, 144.60)
26 03/02/2022 02:58:34 ( 10.04, 155.13) 03/02/2022 03:02:09 ( 22.66, 152.13)
27 03/02/2022 15:30:26 ( 22.69, 152.37) 03/02/2022 15:34:02 ( 10.02, 149.36)
28 03/03/2022 02:39:32 ( 10.05, 159.89) 03/03/2022 02:43:07 ( 22.67, 156.89)
29 03/03/2022 15:11:25 ( 22.68, 157.12) 03/03/2022 15:15:01 ( 10.00, 154.11)
30 03/04/2022 02:20:30 ( 10.01, 164.65) 03/04/2022 02:24:06 ( 22.69, 161.64)
